Powrót do katalogu

FENGYUN 1C DEB

AktywnySSO
NORAD 30840·DEBRIS·🇨🇳 China

Wystrzelony May 10, 1999 z Taiyuan Satellite Launch Center

Loading…

Następne Przeloty (najbliższe 24 godziny)

TLE

ŚwieżeSource: Space-Track

Epoka: Sep 14, 2026, 07:01 UTC

1 30840U 99025AWA 26257.29296327  .00001526  00000-0  22389-3 0  9993
2 30840  98.0185 265.8962 0210265 222.4969 135.9793 14.63173667771585

Śledź FENGYUN 1C DEB w czasie rzeczywistym z AllMySat

Download on the App Store